Location: Deerlick Astronomy Village
(33.5614°N, 82.7631°W)
Time: 18:30:42
(UTC-04:00)

Envisat - Visible Passes

Search period start: 21 May 2019 00:00
Search period end: 31 May 2019 00:00
Orbit: 764 x 766 km, 98.2° (Epoch: 21 May)

Date Brightness Start Highest point End Pass type
(mag) Time Alt. Az. Time Alt. Az. Time Alt. Az.
21 May 5.0 20:50:46 10° SSW 20:55:10 30° W 20:59:37 10° NW visible
23 May 5.7 21:17:47 10° SW 21:20:52 16° W 21:23:59 10° NW visible
26 May 5.5 21:05:46 10° SW 21:09:33 21° W 21:13:21 10° NW visible
28 May 6.0 21:34:06 10° WSW 21:35:18 11° W 21:36:29 10° WNW visible
29 May 5.2 20:54:00 10° SSW 20:58:15 27° W 21:02:33 10° NW visible
